[[{"header":{"parameterUnit":"m.s-1","parameterCategory":1,"la1":30.2991,"la2":30.254,"lo1":-89.0895,"lo2":-89.0444,"dy":0.0017,"dx":0.0017,"nx":28,"ny":28,"refTime":"2024-07-08T21:00:00:Z","depth":0,"parameterNumber":2,"parameterNumberName":"U-component_of_WINDS"},"data":[0,0,0,0,0,0,0,0,0,0,0,0,0,0,0,0,0,0,0,0,0,0,0,0,0,0,0,0,0,0,0,0,0,0,0,0,0,0,0,0,0,0,0,0,0,0,0,0,0,0,0,0,0,0,0,0,0,0,-1.0155,-1.0156,0,-1.034,-1.0342,-1.0344,-1.0468,-1.0469,-1.047,-1.0471,-1.0663,-1.0667,-1.0671,0,0,0,0,0,0,0,0,0,0,0,0,0,-0.9912,-0.9916,-1.0154,-1.0157,-1.0159,-1.0339,-1.0342,-1.0344,-1.0468,-1.0469,-1.047,-1.0471,-1.0661,-1.0667,-1.0672,0,0,0,0,0,0,0,0,0,0,0,0,0,-1.0049,-0.9917,-1.0154,-1.0242,-1.0252,-1.0339,-1.0342,-1.0345,-1.0468,-1.0469,-1.0471,-1.0472,-1.066,-1.0666,-1.0672,-1.0686,0,0,-1.0692,-1.0695,0,0,0,0,0,0,0,0,-1.0041,-1.0058,-1.0227,-1.0237,-1.0248,-1.0382,-1.0327,-1.0459,-1.0468,-1.0386,-1.0471,-1.0472,-1.0569,-1.0583,-1.0615,-1.0695,-1.0703,-1.0693,-1.0697,-1.0699,-1.0701,0,0,0,0,0,0,0,-1.0032,-1.0051,-1.0228,-1.0229,-1.0242,-1.0274,-1.0295,-1.0353,-1.0468,-1.0393,-1.0403,-1.0423,-1.0574,-1.0608,-1.062,-1.0706,-1.0693,-1.0698,-1.0702,-1.0705,-1.0809,-1.0808,0,0,0,0,0,0,-1.0008,-1.0042,-1.0222,-1.0233,-1.0145,-1.0277,-1.0301,-1.0338,-1.0468,-1.0489,-1.0422,-1.0428,-1.0596,-1.0612,-1.0627,-1.0653,-1.0699,-1.0705,-1.0709,-1.0811,-1.0809,-1.0808,0,0,0,0,0,0,-1.0002,-1.0022,-1.0214,-1.014,-1.0167,-1.028,-1.0321,-1.0341,-1.0374,-1.0489,-1.051,-1.0434,-1.0598,-1.0618,-1.0671,-1.0661,-1.0708,-1.0714,-1.0812,-1.081,-1.0809,-1.0702,0,0,0,0,0,0,-0.9994,-1.002,-1.0025,-1.0139,-1.0171,-1.0253,-1.032,-1.0343,-1.0385,-1.0395,-1.0507,-1.0526,-1.0601,-1.066,-1.0677,-1.0671,-1.0719,-1.0813,-1.0811,-1.0809,-1.0707,-1.0697,-1.0689,0,0,0,0,0,-0.9985,-0.9988,-1.0025,-1.0046,-1.0179,-1.0252,-1.027,-1.0355,-1.0383,-1.039,-1.0465,-1.0523,-1.0659,-1.0665,-1.0685,-1.068,-1.0814,-1.0812,-1.0809,-1.0711,-1.0699,-1.0689,0,0,0,0,0,0,-0.987,-1.0005,-1.0047,-1.0086,-1.0157,-1.0273,-1.0284,-1.0339,-1.0404,-1.0411,-1.0514,-1.0538,-1.058,-1.0636,-1.064,-1.0701,-1.0744,-1.0745,-1.0663,-1.0652,-1.0643,-1.0629,-1.0725,0,0,0,0,0,-0.9849,-0.9896,-1.0012,-1.0035,-1.0069,-1.017,-1.0205,-1.0264,-1.0342,-1.0373,-1.0451,-1.0525,-1.0585,-1.0622,-1.0683,-1.0717,-1.0743,-1.0723,-1.0714,-1.0706,-1.0706,-1.0728,-1.0721,-1.08,-1.08,-1.08,0,0,-0.9806,-0.9886,-0.9909,-1.0014,-1.0076,-1.0123,-1.0194,-1.0241,-1.0278,-1.038,-1.0434,-1.0494,-1.0584,-1.0627,-1.065,-1.0675,-1.069,-1.0703,-1.0695,-1.07,-1.0725,-1.0717,-1.0711,-1.0798,-1.0799,-1.0799,0,0,-0.9753,-0.9817,-0.9844,-0.9905,-0.9997,-1.0065,-1.0071,-1.018,-1.0224,-1.028,-1.0358,-1.0404,-1.0504,-1.0565,-1.0609,-1.058,-1.0637,-1.0598,-1.0549,-1.057,-1.0564,-1.0559,-1.0549,-1.0544,-1.0597,-1.0597,-1.0597,0,-0.9688,-0.9761,-0.9852,-0.9894,-0.9939,-1.0033,-1.0062,-1.0117,-1.0225,-1.0254,-1.028,-1.0409,-1.0476,-1.0535,-1.0528,-1.0561,-1.0572,-1.0585,-1.0557,-1.0553,-1.055,-1.0541,-1.0537,-1.0592,-1.0592,-1.0593,-1.0593,0,-0.9678,-0.9728,-0.9739,-0.984,-0.9886,-0.9921,-1.0018,-1.0054,-1.011,-1.0175,-1.0232,-1.0316,-1.0396,-1.0415,-1.047,-1.0482,-1.0495,-1.0537,-1.0583,-1.0535,-1.0529,-1.0527,-1.0584,-1.0586,-1.0588,-1.0589,0,0,-0.9555,-0.9706,-0.9709,-0.9756,-0.9866,-0.9907,-0.9948,-1.0026,-1.0055,-1.0127,-1.0164,-1.0248,-1.0289,-1.0339,-1.0402,-1.042,-1.0392,-1.0461,-1.0465,-1.0445,-1.0412,-1.0378,-1.0373,-1.0431,-1.0431,-1.043,-1.0404,0,-0.9518,-0.9594,-0.9677,-0.9725,-0.9773,-0.9864,-0.99,-0.9972,-1.0035,-1.0085,-1.0156,-1.0213,-1.0262,-1.0293,-1.0316,-1.039,-1.0387,-1.0394,-1.0467,-1.0468,-1.044,-1.0369,-1.0334,-1.0305,-1.0402,-1.0402,-1.0402,0,-0.9484,-0.9551,-0.9603,-0.9709,-0.9732,-0.9763,-0.9842,-0.9889,-0.9973,-1.0017,-1.0073,-1.0141,-1.019,-1.023,-1.0299,-1.0302,-1.0338,-1.0379,-1.038,-1.0389,-1.0431,-1.0376,-1.0298,-1.0293,-1.0399,-1.0399,-1.0399,0,-0.9389,-0.9492,-0.9537,-0.9575,-0.97,-0.9719,-0.9773,-0.9858,-0.99,-0.997,-0.9998,-1.0072,-1.0113,-1.017,-1.0256,-1.0277,-1.0316,-1.0364,-1.0355,-1.0353,-1.0359,-1.0357,-1.0283,-1.0382,-1.0382,-1.0382,-1.0382,0,-0.9338,-0.9366,-0.9496,-0.9523,-0.9558,-0.9655,-0.9687,-0.9749,-0.9824,-0.9866,-0.9951,-0.9989,-1.0101,-1.0152,-1.0221,-1.0268,-1.0286,-1.0324,-1.0341,-1.0316,-1.0311,-1.034,-1.0344,-1.0381,-1.0381,-1.0382,-1.0382,0,-0.9237,-0.9325,-0.938,-0.9494,-0.9524,-0.9544,-0.9643,-0.9674,-0.9742,-0.9794,-0.9812,-0.9919,-0.9984,-1.0076,-1.017,-1.0216,-1.0254,-1.0282,-1.0224,-1.0235,-1.0221,-1.0221,-1.0163,-1.0161,-1.026,-1.0259,-1.0258,0,-0.9199,-0.9223,-0.9339,-0.9373,-0.9423,-0.9477,-0.952,-0.9616,-0.9658,-0.9756,-0.9775,-0.9847,-0.991,-1.001,-1.0097,-1.0169,-1.02,-1.0175,-1.0212,-1.0185,-1.02,-1.0197,-1.02,-1.0166,-1.0164,-1.0163,-1.0162,0,-0.9121,-0.9163,-0.9222,-0.9295,-0.9344,-0.9408,-0.9475,-0.9498,-0.9609,-0.9652,-0.972,-0.9768,-0.9864,-0.9934,-1.0018,-1.0075,-1.0137,-1.015,-1.0152,-1.0125,-1.0091,-1.0109,-1.02,-1.015,-1.0152,-1.0152,-1.0153,-1.0153,-0.905,-0.9076,-0.9162,-0.9225,-0.9285,-0.9346,-0.9381,-0.9453,-0.9511,-0.9595,-0.965,-0.9714,-0.98,-0.9919,-0.9973,-1.0026,-1.0052,-1.0054,-1.0055,-1.0054,-1.0045,-1.0083,-1.0042,-1.0043,-1.0043,-1.0044,-1.0044,0,-0.8976,-0.9036,-0.9093,-0.9184,-0.9234,-0.9287,-0.9365,-0.9403,-0.9459,-0.9533,-0.9592,-0.967,-0.9739,-0.9832,-0.9908,-0.9933,-0.9963,-0.995,-0.9948,-0.996,-1.0018,-1.0009,-0.9924,-0.9924,-0.9924,-0.9924,-0.9924,-0.9924,-0.8944,-0.899,-0.9043,-0.9121,-0.9182,-0.9245,-0.9284,-0.9342,-0.9401,-0.9484,-0.9542,-0.9601,-0.9684,-0.9766,-0.9833,-0.9858,-0.9882,-0.986,-0.9894,-0.9946,-0.9956,-0.9967,-0.9958,-0.9864,-0.9864,-0.9832,-0.9832,-0.9831]},{"header":{"parameterUnit":"m.s-1","parameterCategory":1,"la1":30.2991,"la2":30.254,"lo1":-89.0895,"lo2":-89.0444,"dy":0.0017,"dx":0.0017,"nx":28,"ny":28,"refTime":"2024-07-08T21:00:00:Z","depth":0,"parameterNumber":3,"parameterNumberName":"V-component_of_WINDS"},"data":[0,0,0,0,0,0,0,0,0,0,0,0,0,0,0,0,0,0,0,0,0,0,0,0,0,0,0,0,0,0,0,0,0,0,0,0,0,0,0,0,0,0,0,0,0,0,0,0,0,0,0,0,0,0,0,0,0,0,8.1329,8.1329,0,8.1418,8.1419,8.142,8.1347,8.1344,8.1341,8.1338,8.1421,8.1426,8.1431,0,0,0,0,0,0,0,0,0,0,0,0,0,8.1084,8.1089,8.1328,8.133,8.1331,8.1418,8.1419,8.1421,8.1348,8.1344,8.134,8.1337,8.142,8.1426,8.1432,0,0,0,0,0,0,0,0,0,0,0,0,0,8.1184,8.1091,8.1328,8.1305,8.1304,8.1418,8.1419,8.1421,8.1348,8.1344,8.1339,8.1335,8.1418,8.1425,8.1433,8.1571,0,0,8.1456,8.1459,0,0,0,0,0,0,0,0,8.1178,8.1193,8.1307,8.1307,8.1306,8.1367,8.1364,8.1471,8.135,8.1331,8.1338,8.1333,8.1406,8.1415,8.1441,8.1575,8.1579,8.1456,8.1461,8.1464,8.1466,0,0,0,0,0,0,0,8.1171,8.1188,8.1364,8.1309,8.1308,8.1287,8.1296,8.1384,8.1393,8.1333,8.1328,8.134,8.1405,8.1434,8.1443,8.158,8.1456,8.1463,8.1468,8.1471,8.183,8.1835,0,0,0,0,0,0,8.1168,8.1183,8.1361,8.1366,8.123,8.1295,8.1305,8.1352,8.1392,8.1394,8.1343,8.1336,8.1423,8.1434,8.1445,8.1609,8.1464,8.1471,8.1476,8.1825,8.1831,8.1836,0,0,0,0,0,0,8.1163,8.1185,8.1357,8.1274,8.1294,8.1304,8.1357,8.1356,8.1385,8.14,8.1401,8.1372,8.142,8.1435,8.1541,8.1611,8.1475,8.1482,8.1819,8.1827,8.1834,8.1938,0,0,0,0,0,0,8.1157,8.1183,8.1238,8.1276,8.1299,8.1454,8.1362,8.1361,8.14,8.139,8.1427,8.1429,8.1418,8.153,8.1548,8.1619,8.1488,8.1813,8.1822,8.1831,8.1928,8.1948,8.1965,0,0,0,0,0,8.1148,8.1263,8.1242,8.1263,8.1368,8.1458,8.1471,8.1458,8.1406,8.1459,8.1469,8.1428,8.1601,8.1541,8.1561,8.1635,8.1808,8.182,8.183,8.192,8.1944,8.1965,0,0,0,0,0,0,8.123,8.1267,8.1244,8.1375,8.1415,8.1446,8.1513,8.1485,8.1538,8.1527,8.1506,8.1515,8.1626,8.1641,8.1574,8.1771,8.1695,8.1711,8.1757,8.178,8.1798,8.1791,8.1494,0,0,0,0,0,8.1264,8.1338,8.1364,8.1477,8.1498,8.1503,8.1541,8.1529,8.1567,8.1583,8.16,8.1637,8.1699,8.174,8.1799,8.1931,8.1936,8.1991,8.201,8.2025,8.2038,8.2107,8.2131,8.1873,8.1873,8.1873,0,0,8.1334,8.1363,8.141,8.1494,8.1523,8.1596,8.1517,8.1598,8.1651,8.1594,8.1696,8.171,8.1749,8.1869,8.1922,8.1884,8.2111,8.2039,8.2051,8.2056,8.2121,8.2145,8.2167,8.1881,8.1879,8.1878,0,0,8.1498,8.1529,8.1625,8.1657,8.1703,8.1705,8.1729,8.1765,8.1773,8.1875,8.1834,8.1895,8.2003,8.2033,8.2062,8.2238,8.2201,8.2257,8.2352,8.242,8.244,8.2458,8.2519,8.2541,8.2271,8.2271,8.2271,0,8.1578,8.169,8.1678,8.1762,8.1799,8.1754,8.185,8.188,8.1941,8.1967,8.1925,8.206,8.2083,8.2208,8.2251,8.2277,8.23,8.2252,8.2439,8.2457,8.2473,8.2531,8.2554,8.2277,8.2277,8.2276,8.2275,0,8.1784,8.1862,8.1934,8.1998,8.2043,8.2133,8.2132,8.2178,8.2161,8.2167,8.2271,8.2298,8.236,8.2389,8.2372,8.2511,8.2486,8.2443,8.2366,8.2504,8.2558,8.258,8.2286,8.2284,8.2282,8.2281,0,0,8.2001,8.2059,8.2085,8.2113,8.2161,8.2219,8.2306,8.237,8.2409,8.2453,8.2523,8.2616,8.2576,8.2609,8.2595,8.2655,8.279,8.2603,8.2603,8.2635,8.2942,8.2974,8.3,8.2767,8.2771,8.2774,8.2938,0,8.2166,8.232,8.2312,8.2455,8.2525,8.2484,8.2558,8.2594,8.2602,8.266,8.2667,8.2733,8.2676,8.2695,8.2753,8.2761,8.2851,8.275,8.2828,8.2831,8.2818,8.3028,8.3062,8.3215,8.2959,8.2963,8.2965,0,8.2379,8.2434,8.2585,8.2622,8.265,8.2719,8.2776,8.2833,8.2872,8.2873,8.2911,8.2887,8.2971,8.2895,8.3009,8.294,8.2972,8.2981,8.2986,8.2991,8.2906,8.3037,8.3264,8.3287,8.2999,8.2996,8.2994,0,8.252,8.2631,8.2735,8.2761,8.2807,8.2855,8.2876,8.291,8.2949,8.2998,8.3023,8.308,8.3111,8.3155,8.3146,8.3091,8.3262,8.3185,8.3262,8.3263,8.3298,8.3296,8.3532,8.3322,8.3322,8.3322,8.3321,0,8.2704,8.2798,8.2799,8.2863,8.2966,8.2954,8.3055,8.307,8.3101,8.3165,8.3131,8.3191,8.3177,8.3235,8.3229,8.3323,8.3338,8.3339,8.3335,8.3341,8.3341,8.336,8.3348,8.3328,8.3326,8.3325,8.3324,0,8.2878,8.2884,8.2995,8.303,8.3041,8.3115,8.3143,8.3202,8.3207,8.3288,8.3306,8.3314,8.3381,8.3378,8.3453,8.3448,8.3564,8.3549,8.3552,8.3548,8.3625,8.3617,8.388,8.3913,8.3684,8.3686,8.3688,0,8.2995,8.3066,8.311,8.3152,8.3177,8.3244,8.3284,8.3275,8.3317,8.3367,8.3419,8.3484,8.3535,8.3644,8.3654,8.3711,8.3696,8.3784,8.3704,8.3707,8.3695,8.369,8.3696,8.3799,8.3802,8.3804,8.3806,0,8.32,8.3199,8.326,8.3322,8.3371,8.3419,8.3462,8.3497,8.3492,8.3541,8.3611,8.3651,8.3729,8.3793,8.3847,8.3865,8.3834,8.3831,8.3852,8.3857,8.3855,8.3856,8.3593,8.3825,8.3823,8.3821,8.382,8.382,8.3347,8.3408,8.3449,8.3517,8.355,8.3591,8.3648,8.3662,8.3721,8.3785,8.3775,8.3853,8.3888,8.3959,8.3982,8.404,8.4008,8.4039,8.4046,8.4053,8.4061,8.3848,8.405,8.405,8.4049,8.4049,8.4048,0,8.3549,8.3574,8.3637,8.37,8.3753,8.3723,8.3769,8.3814,8.3884,8.3921,8.3973,8.4052,8.4114,8.413,8.4189,8.4232,8.4219,8.4248,8.4243,8.4247,8.4087,8.4063,8.4257,8.4257,8.4257,8.4257,8.4257,8.4257,8.366,8.3762,8.3766,8.3882,8.3904,8.3983,8.4011,8.4048,8.4078,8.4169,8.4221,8.4232,8.426,8.432,8.4374,8.4377,8.4399,8.4433,8.443,8.428,8.4259,8.4239,8.4216,8.4439,8.4439,8.4585,8.4586,8.4587]}]]